ONEWEB-0121 (47267 NORAD) Tracking and Keplerian Element Data

This shows tracking and keplerian element data for the satellite.

Feedback or suggestion? Click here.




ElementValue
Catalog47267
NameONEWEB-0121
Epoch Orbit512
Epoch Day21.16668981
Epoch Year2021
RAAN27.9685
Inclination87.3384
Eccentricity0.0012392
Argument of Perigee152.4624
Mean Anonmoly141.4533
Mean Motion14.86059279
Decay Rate-0.01449547
L11 47267U 20100K 21021.16668981 -.01449547 00000-0 -17913+0 0 9996
L22 47267 87.3384 27.9685 0012392 152.4624 141.4533 14.86059279 5129

Live tracking and technical data element details for ONEWEB-0121 (NORAD 47267). ONEWEB-0121 can be tracked NOW for your location showing map with azimuth and elevation plus other details from your city location.

Track the satellite on the map from your city or location and see movement details for azimuth, elevation, latitude, longitude, range, height, and movement on the map or in text.







IsCatalogInMostPopularTable: catalog: 47267, numindb: 14
Update: records affected: 1



GetName: 47267 ONEWEB-0121

Hit Count: updated at: Sat, 23 Jan 2021 18:35:02 GMT